SES-12

Last updated on Sat Aug 15 2026 00:03:01 GMT+0000 (Coordinated Universal Time)

1 43488U 18049A 26226.58906323 -.00000284 00000+0 00000+0 0 9996 2 43488 0.0128 27.7213 0001287 205.5954 36.7307 1.00270418 30002
UTC large
Height (km)
Speed (km/s)
/
Latitude / Longitude
Inclination (degrees)
Orbital Period (minutes)
Azimuth
Elevation
Range (km)
Doppler Factor

Next 0 passes for location: London (51.5072 / 0.1276)

No passes found over London.
SES-12